SL-16 DEB, 39719

Orbit data source: Space-Track

SL-16 DEB, 39719 is space debris in LEO originally from a launch on Fri, 25 Dec 1992 UTC launched from the Tyuratam Missile And Space Complex (TTMTR). Debris objects in space refer to the collection of defunct objects orbiting the Earth. Examples of debris include non-operational satellites, rocket bodies, and fragments generated from explosions, collisions, or faulty payload assembly.

Loading next visibility...
Identifier
39719, 1992-093KK
Orbit
LEO
Country
Flag of CISCIS
Related business
Manufacturer
Unknown
Mission
Spacecraft
Bus & Motor
Unknown
Mass
Unknown
Launch date (UTC)
1992-12-25 (33 years ago)
Launch vehicle
Unknown
Launch site
Tyuratam Missile And Space Complex (TTMTR)
Object type
Payload
Rocket body
Debris
Shape & HBR
Unknown shape, 0.1 m
Radar Cross Section
Small (<0.1 m²)

Expand to show TLE details & history
Last TLE update: 1 week ago

TLE from 1 week ago
0 SL-16 DEB
1 39719U 92093KK  26120.37906666  .00000069  00000-0  78390-4 0  9992
2 39719  71.2994 339.5961 0098709 313.7922 221.4138 13.96258977613164
Epoch: 2026-04-30T09:05Z
TLE epoch observation values (Epoch: 2026-04-30T09:05:51.359Z)
Latitude
5.16807°
Longitude
163.06032°
Altitude
962.898 km
Speed
7.343 km/s
True Right ascension
10h 31m 24s
True Declination
5° 08' 17"
Sunlit
Object was in daylight at epoch
Visualization orbit readout
Latitude
Unknown
Longitude
Unknown
Altitude
Unknown
Speed
Unknown
Apparent Right ascension
Unknown
Apparent Declination
Unknown
Sunlit
N/A
Visualization observer readout
Local Sidereal Time
16:19:47
Azimuth
Unknown
Elevation
Unknown
Doppler factor
Unknown
Orbital elements
Apogee altitude
976.581 km
Perigee altitude
832.805 km
Semi-major axis
7,282.83 km
Eccentricity
0.00987
Inclination
71.2994°
RAAN
339.5961°
Arg. of periapsis
313.7922°
True anomaly
220.67245°
Mean anomaly
221.4138°
Eccentric anomaly
221.04244°
Mean motion
3.49215 °/min
Orbital period
103.09 mins
BSTAR
0.00007839
Loading maneuver chart data...
Computing Atmospheric mass density...
Loading historical data...
Loading historical data...
Loading historical data...
Loading historical data...
Loading historical data...
Loading historical data...
Loading historical data...

Documentation

Showing up to 5 results
|